x

8454000 - Providence, Ri (foxr1) Weather Station

8:18 - Sat 23rd Sep 2017 All times are EDT. -4 hours from GMT.

  • Wind
    3mph, 5mph gusts
  • Sea Temp 67°f
  • Luft Temp 70°f
  • Sea Pressure 1016.6mb
  • 8454000 - Providence, Ri
  • 8454000 - Providence, Ri

More Historic Weather Station data

Upgrade to MSW Pro to gain access to the past 30 days of data for over 8000 Wavebouys and Weather Stations around the globe.

Join

Comparision Forecast

View Surf forecast
   
Sa 09/23 8:18 3 5 mph 1016.6mb 67f 70f
8:12 5 6 mph 1016.5mb 67f 70f
8:06 3 5 mph 1016.5mb 67f 71f
8:00 3 6 mph 1016.4mb 67f 71f
7:54 5 6 mph 1016.3mb 67f 71f
7:48 5 6 mph 1016.2mb 67f 72f
7:42 6 7 mph 1016.1mb 67f 72f
7:36 5 7 mph 1016.1mb 67f 72f
7:30 5 8 mph 1016mb 67f 73f
7:24 6 8 mph 1015.9mb 67f 73f
7:18 3 6 mph 1015.8mb 67f 74f
7:12 5 5 mph 1015.7mb 67f 74f
7:06 5 6 mph 1015.6mb 67f 74f
7:00 3 6 mph 1015.6mb 67f 74f
6:54 6 7 mph 1015.5mb 67f 75f
6:48 5 6 mph 1015.7mb 67f 75f
6:42 5 6 mph 1015.7mb 67f 75f
6:36 5 9 mph 1015.7mb 67f 76f
6:30 6 10 mph 1015.6mb 67f 76f
6:24 8 9 mph 1015.6mb 67f 76f
6:18 7 8 mph 1015.5mb 67f 77f
6:12 7 8 mph 1015.4mb 67f 77f
6:06 7 9 mph 1015.4mb 67f 77f
6:00 9 10 mph 1015.3mb 67f 77f
5:54 9 11 mph 1015.3mb 67f 77f
5:48 9 10 mph 1015.4mb 67f 77f
5:42 8 9 mph 1015.3mb 67f 77f
5:36 7 9 mph 1015.3mb 67f 78f
5:30 8 9 mph 1015.3mb 67f 78f
5:24 8 13 mph 1015.2mb 67f 78f
5:18 10 13 mph 1015.1mb 67f 78f
5:12 9 13 mph 1015.1mb 67f 78f
5:06 9 14 mph 1015mb 66f 78f
5:00 9 13 mph 1015mb 66f 78f
4:54 10 13 mph 1015mb 67f 78f
4:48 7 11 mph 1015mb 67f 78f
4:42 8 11 mph 1014.9mb 67f 78f
4:36 11 13 mph 1015mb 67f 78f
4:30 9 13 mph 1015mb 66f 78f
4:24 9 13 mph 1015mb 66f 79f
4:18 11 15 mph 1015mb 66f 79f
4:12 11 16 mph 1015.1mb 66f 78f
4:06 13 16 mph 1015mb 66f 78f
4:00 10 16 mph 1015.1mb 66f 78f
3:54 8 16 mph 1015.2mb 66f 78f
3:48 8 13 mph 1015.2mb 66f 78f
3:42 7 13 mph 1015.2mb 66f 78f
3:36 11 15 mph 1015.2mb 66f 79f
3:30 11 15 mph 1015.3mb 66f 78f
3:24 10 15 mph 1015.3mb 66f 78f
3:18 8 14 mph 1015.4mb 66f 77f
3:12 8 15 mph 1015.4mb 66f 77f
3:06 11 15 mph 1015.3mb 66f 77f
3:00 10 16 mph 1015.4mb 66f 77f
2:54 9 11 mph 1015.4mb 66f 76f
2:48 10 13 mph 1015.4mb 66f 76f
2:42 11 15 mph 1015.4mb 66f 76f
2:36 13 17 mph 1015.4mb 66f 76f
2:30 15 18 mph 1015.5mb 66f 76f
2:24 10 16 mph 1015.6mb 66f 76f
2:18 11 18 mph 1015.6mb 66f 76f
2:12 13 15 mph 1015.7mb 66f 75f
2:06 15 20 mph 1015.7mb 66f 75f
2:00 14 18 mph 1015.8mb 66f 75f
1:54 11 17 mph 1015.8mb 66f 75f
1:48 13 17 mph 1015.8mb 66f 75f
1:42 9 16 mph 1015.7mb 66f 75f
1:36 11 16 mph 1015.7mb 66f 74f
1:30 8 15 mph 1015.7mb 66f 74f
1:24 11 16 mph 1015.7mb 66f 74f
1:18 10 15 mph 1015.7mb 66f 73f
1:12 11 16 mph 1015.6mb 66f 73f
1:06 13 15 mph 1015.6mb 66f 73f
1:00 13 15 mph 1015.7mb 66f 72f
12:54 8 15 mph 1015.8mb 66f 72f
12:48 11 13 mph 1015.8mb 66f 72f
12:42 8 11 mph 1015.8mb 66f 72f
12:36 9 14 mph 1015.8mb 66f 72f
12:30 9 11 mph 1015.9mb 66f 71f
12:24 8 16 mph 1016mb 66f 71f
12:18 8 18 mph 1015.9mb 66f 71f
12:12 9 16 mph 1015.9mb 66f 71f
12:06 13 17 mph 1015.9mb 66f 70f
12:00 8 15 mph 1016mb 67f 70f
11:54 10 18 mph 1016.2mb 67f 70f
11:48 14 18 mph 1016.3mb 67f 70f
11:42 7 13 mph 1016.4mb 67f 70f
11:36 11 17 mph 1016.4mb 67f 70f
11:30 11 22 mph 1016.3mb 67f 69f
11:24 14 21 mph 1016.3mb 67f 69f
11:18 13 21 mph 1016.3mb 67f 69f
11:12 14 23 mph 1016.4mb 67f 69f
11:06 11 18 mph 1016.4mb 67f 69f
11:00 14 20 mph 1016.3mb 67f 68f
10:54 14 18 mph 1016.3mb 67f 68f
10:48 16 22 mph 1016.2mb 67f 68f
10:42 9 15 mph 1016.3mb 67f 68f
10:36 11 18 mph 1016.4mb 67f 67f
10:30 11 17 mph 1016.4mb 67f 66f
10:24 11 18 mph 1016.4mb 67f 66f
10:18 11 16 mph 1016.3mb 67f 65f
10:12 13 17 mph 1016.3mb 67f 65f
10:06 13 17 mph 1016.3mb 67f 65f
10:00 13 17 mph 1016.4mb 67f 64f
9:54 15 22 mph 1016.4mb 67f 64f
9:48 11 21 mph 1016.4mb 67f 64f
9:42 10 21 mph 1016.3mb 67f 64f
9:36 13 20 mph 1016.1mb 67f 64f
9:30 9 16 mph 1016mb 67f 64f
9:24 9 16 mph 1016mb 67f 64f
9:18 10 16 mph 1015.9mb 67f 64f
9:12 13 18 mph 1015.8mb 67f 64f
9:06 11 17 mph 1015.7mb 67f 64f
9:00 9 16 mph 1015.7mb 67f 63f
8:54 11 17 mph 1015.6mb 67f 63f
8:48 10 15 mph 1015.7mb 67f 63f
8:42 7 15 mph 1015.6mb 67f 63f
8:36 8 15 mph 1015.3mb 67f 63f
8:30 9 16 mph 1015.2mb 67f 63f
8:24 10 16 mph 1015.1mb 67f 63f
8:18 14 21 mph 1015.1mb 67f 63f
8:12 9 18 mph 1015.2mb 67f 63f
8:06 13 16 mph 1015.1mb 67f 63f
8:00 10 18 mph 1015mb 67f 63f
7:54 13 17 mph 1014.9mb 67f 63f
7:48 13 17 mph 1014.8mb 66f 63f
7:42 13 17 mph 1014.8mb 66f 63f
7:36 11 16 mph 1014.9mb 66f 63f
7:30 10 17 mph 1015mb 66f 63f
7:24 10 17 mph 1015mb 66f 63f
7:18 13 20 mph 1014.8mb 66f 63f
7:12 10 14 mph 1014.8mb 66f 63f
7:06 9 16 mph 1014.7mb 66f 63f
7:00 13 17 mph 1014.7mb 66f 63f
6:54 10 15 mph 1014.7mb 66f 63f
6:48 13 17 mph 1014.8mb 66f 62f
6:42 11 16 mph 1014.9mb 66f 62f
6:36 10 17 mph 1014.9mb 67f 62f
6:30 13 17 mph 1014.9mb 67f 62f
6:24 10 17 mph 1014.9mb 67f 62f
6:18 10 16 mph 1014.9mb 67f 62f
6:12 10 18 mph 1014.9mb 66f 62f
6:06 11 20 mph 1014.8mb 66f 62f
6:00 13 17 mph 1014.9mb 66f 62f
5:54 10 16 mph 1014.8mb 66f 62f
5:48 8 18 mph 1014.6mb 66f 62f
5:42 8 16 mph 1014.5mb 66f 62f
5:36 8 15 mph 1014.5mb 66f 62f
5:30 13 16 mph 1014.5mb 66f 62f
5:24 13 16 mph 1014.5mb 66f 62f
5:18 11 17 mph 1014.4mb 66f 63f
5:12 11 23 mph 1014.4mb 66f 63f
5:06 14 18 mph 1014.3mb 66f 62f
5:00 9 21 mph 1014.3mb 66f 62f
4:54 18 23 mph 1014.3mb 66f 62f
4:48 10 20 mph 1014.4mb 66f 63f
4:42 11 21 mph 1014.3mb 66f 63f
4:36 14 21 mph 1014.3mb 66f 63f
4:30 15 22 mph 1014.3mb 66f 63f
4:24 15 23 mph 1014.3mb 66f 63f
4:18 17 25 mph 1014.3mb 66f 63f
4:12 17 25 mph 1014.2mb 66f 63f
4:06 15 23 mph 1014.2mb 66f 63f
4:00 15 23 mph 1014.3mb 66f 63f
3:54 16 24 mph 1014.2mb 66f 63f
3:48 17 25 mph 1014.1mb 66f 63f
3:42 18 23 mph 1014.1mb 66f 63f
3:36 15 25 mph 1014mb 66f 63f
3:30 15 22 mph 1014.1mb 66f 63f
3:24 13 22 mph 1014.2mb 66f 63f
3:18 13 24 mph 1013.9mb 66f 63f
3:12 14 23 mph 1013.8mb 66f 63f
3:06 15 22 mph 1013.8mb 66f 63f
3:00 16 24 mph 1014mb 66f 63f
2:54 14 21 mph 1014mb 66f 63f
2:48 13 23 mph 1014.1mb - -
2:42 15 23 mph 1014mb - -
2:36 11 18 mph 1014.1mb - -
2:30 15 18 mph 1014.1mb 66f 63f
2:24 15 21 mph 1014.2mb 66f 63f
2:18 14 20 mph 1014.2mb 66f 63f
2:12 14 20 mph 1014.1mb 66f 63f
2:06 10 17 mph 1014mb 66f 63f
2:00 10 17 mph 1014.1mb 66f 63f
1:54 15 20 mph 1014mb 66f 63f
1:48 15 21 mph 1014.2mb 66f 63f
1:42 15 23 mph 1014.2mb 66f 63f
1:36 14 20 mph 1014.2mb 66f 63f
1:30 11 18 mph 1014.3mb 66f 63f
1:24 11 17 mph 1014.3mb 66f 63f
1:18 13 20 mph 1014.3mb 66f 63f
1:12 14 23 mph 1014.3mb 66f 63f
1:06 15 22 mph 1014.1mb 66f 63f
1:00 14 25 mph 1014mb 66f 63f
12:54 15 22 mph 1014.1mb 66f 63f
12:48 14 20 mph 1013.9mb 67f 63f
12:42 11 20 mph 1014mb 67f 62f
12:36 11 16 mph 1014mb 67f 62f
12:30 15 20 mph 1014.1mb 67f 62f
12:24 14 18 mph 1014.2mb 67f 62f
12:18 16 22 mph 1014.2mb 67f 62f
12:12 14 18 mph 1014mb 67f 62f
12:06 11 20 mph 1014mb 67f 62f
12:00 15 21 mph 1014mb 67f 62f
Fr 09/22 11:54 15 24 mph 1014mb 67f 62f
11:48 16 22 mph 1014.2mb 67f 62f
11:42 11 21 mph 1014.2mb 67f 62f
11:36 15 21 mph 1014.3mb 67f 62f
11:30 15 22 mph 1014.2mb 67f 61f
11:24 13 20 mph 1014.4mb 67f 62f
11:18 13 20 mph 1014.5mb 67f 61f
11:12 14 20 mph 1014.5mb 67f 62f
11:06 14 20 mph 1014.3mb 67f 62f
11:00 14 21 mph 1014.4mb 67f 61f
10:54 16 23 mph 1014.3mb 67f 61f
10:48 13 22 mph 1014.3mb 67f 62f
10:42 14 18 mph 1014.3mb 67f 61f
10:36 13 18 mph 1014.2mb 67f 62f
10:30 14 25 mph 1014.2mb 67f 62f
10:24 16 22 mph 1014.2mb 67f 61f
10:18 14 21 mph 1014.3mb 67f 61f
10:12 16 22 mph 1014.5mb 67f 61f
10:06 14 17 mph 1014.6mb 67f 61f
10:00 16 21 mph 1014.5mb 67f 61f
9:54 16 22 mph 1014.4mb 67f 61f
9:48 11 25 mph 1014.3mb 67f 61f
9:42 17 25 mph 1014.3mb 67f 61f
9:36 17 23 mph 1014.3mb 67f 61f
9:30 13 23 mph 1014.3mb 67f 61f
9:24 13 22 mph 1014.5mb 67f 61f
9:18 15 26 mph 1014.5mb 67f 61f
9:12 18 24 mph 1014.3mb 67f 61f
9:06 14 21 mph 1014.2mb 67f 61f
9:00 17 23 mph 1014mb 67f 61f
8:54 15 23 mph 1013.9mb 67f 61f
8:48 14 26 mph 1014.1mb 67f 61f
8:42 17 25 mph 1014.2mb 67f 61f
8:36 20 23 mph 1014.3mb 67f 61f
8:30 17 28 mph 1014.3mb 67f 62f
8:24 15 24 mph 1014.3mb 67f 62f
8:18 16 26 mph 1014.3mb 67f 62f
8:12 18 32 mph 1014.2mb 67f 62f
8:06 16 26 mph 1014mb 67f 62f
8:00 13 29 mph 1014.2mb 67f 62f
7:54 18 24 mph 1014mb 67f 62f
7:48 18 26 mph 1014mb 67f 62f
7:42 18 30 mph 1013.9mb 67f 61f
7:36 23 32 mph 1013.9mb 67f 61f
7:30 22 26 mph 1013.8mb 67f 61f
7:24 17 28 mph 1013.7mb 67f 61f
7:18 16 26 mph 1013.6mb 67f 61f
7:12 17 25 mph 1013.7mb 67f 62f
7:06 18 26 mph 1013.7mb 67f 61f
7:00 15 25 mph 1013.8mb 67f 61f
6:54 17 28 mph 1013.7mb 67f 61f
6:48 16 28 mph 1013.7mb 67f 61f
6:42 20 26 mph 1013.7mb 67f 61f
6:36 17 31 mph 1013.7mb 67f 61f
6:30 20 31 mph 1013.8mb 67f 62f
6:24 18 32 mph 1013.9mb 66f 61f
6:18 17 31 mph 1013.8mb 66f 61f
6:12 17 25 mph 1013.7mb 66f 61f
6:06 20 30 mph 1013.8mb 66f 61f
6:00 16 26 mph 1013.9mb 66f 61f
5:54 20 26 mph 1013.9mb 66f 61f
5:48 21 29 mph 1013.9mb 66f 61f
5:42 20 30 mph 1013.9mb 66f 61f
5:36 22 31 mph 1013.9mb 66f 61f
5:30 16 26 mph 1013.9mb 66f 61f
5:24 18 26 mph 1013.9mb 66f 62f
5:18 20 28 mph 1013.8mb 66f 62f
5:12 21 29 mph 1013.8mb 66f 61f
5:06 18 31 mph 1013.9mb 66f 61f
5:00 17 31 mph 1013.8mb 66f 61f
4:54 21 29 mph 1013.9mb 66f 61f
4:48 20 33 mph 1013.8mb 66f 61f
4:42 16 29 mph 1013.7mb 66f 61f
4:36 17 26 mph 1013.9mb 66f 61f
4:30 16 25 mph 1013.9mb 66f 61f
4:24 20 28 mph 1013.9mb 66f 61f
4:18 21 30 mph 1013.8mb 66f 61f
4:12 16 29 mph 1013.7mb 66f 61f
4:06 22 30 mph 1013.7mb 66f 61f
4:00 20 28 mph 1013.7mb 66f 61f
3:54 14 28 mph 1013.7mb 66f 61f
3:48 17 26 mph 1013.9mb 66f 61f
3:42 20 24 mph 1013.9mb 66f 61f
3:36 21 29 mph 1013.8mb 66f 61f
3:30 20 29 mph 1013.7mb 66f 60f
3:24 16 29 mph 1013.9mb 66f 61f
3:18 20 29 mph 1013.9mb 66f 60f
3:12 20 26 mph 1013.9mb 66f 61f
3:06 20 30 mph 1013.9mb 66f 61f
3:00 18 29 mph 1013.8mb 66f 61f
2:54 17 30 mph 1013.9mb 66f 61f
2:48 20 26 mph 1013.9mb 66f 61f
2:42 20 30 mph 1013.9mb 66f 61f
2:36 16 28 mph 1013.9mb 66f 61f
2:30 18 31 mph 1014mb 66f 61f
2:24 20 28 mph 1013.9mb 66f 61f
2:18 22 33 mph 1014mb 66f 60f
2:12 14 28 mph 1014mb 66f 60f
2:06 18 29 mph 1014mb 66f 60f
2:00 17 30 mph 1014.1mb 66f 60f
1:54 16 26 mph 1014.2mb 66f 60f
1:48 16 30 mph 1014.3mb 66f 60f
1:42 23 30 mph 1014.2mb 66f 60f
1:36 21 29 mph 1014.3mb 66f 60f
1:30 17 26 mph 1014.4mb 66f 60f
1:24 18 26 mph 1014.5mb 66f 60f
1:18 17 26 mph 1014.6mb 66f 60f
1:12 16 29 mph 1014.6mb 66f 60f
1:06 20 26 mph 1014.6mb 66f 60f
1:00 18 24 mph 1014.5mb 66f 60f
12:54 20 26 mph 1014.5mb 66f 60f
12:48 16 24 mph 1014.6mb 66f 60f
12:42 16 28 mph 1014.5mb 66f 60f
12:36 16 23 mph 1014.6mb 66f 60f
12:30 11 22 mph 1014.7mb 66f 60f
12:24 15 23 mph 1014.7mb 66f 60f
12:18 16 24 mph 1014.6mb 66f 60f
12:12 17 26 mph 1014.6mb 66f 60f
12:06 16 28 mph 1014.6mb 66f 60f
12:00 14 25 mph 1014.6mb 65f 60f
11:54 16 24 mph 1014.5mb 65f 60f
11:48 17 24 mph 1014.6mb 65f 60f
11:42 17 24 mph 1014.6mb 65f 60f
11:36 18 24 mph 1014.7mb 65f 60f
11:30 15 25 mph 1014.8mb 65f 60f
11:24 18 29 mph 1014.7mb 65f 60f
11:18 20 26 mph 1014.7mb 65f 59f
11:12 22 29 mph 1014.7mb 65f 59f
11:06 18 28 mph 1014.8mb 65f 59f
11:00 18 30 mph 1014.8mb 65f 59f
10:54 21 25 mph 1014.8mb 65f 59f
10:48 20 25 mph 1014.8mb 65f 59f
10:42 21 29 mph 1014.8mb 65f 59f
10:36 18 28 mph 1014.7mb 65f 59f
10:30 17 26 mph 1014.6mb 65f 59f
10:24 17 29 mph 1014.7mb 65f 59f
10:18 16 23 mph 1014.6mb 65f 60f
10:12 17 32 mph 1014.6mb 66f 60f
10:06 18 33 mph 1014.6mb 67f 60f
10:00 20 26 mph 1014.5mb 67f 60f
9:54 17 30 mph 1014.7mb 67f 60f
9:48 21 30 mph 1014.7mb 67f 60f
9:42 29 34 mph 1014.6mb 67f 60f
9:36 24 37 mph 1014.5mb 67f 60f
9:30 17 26 mph 1014.5mb 67f 60f
9:24 20 34 mph 1014.6mb 67f 60f
9:18 25 33 mph 1014.4mb 67f 60f
9:12 17 33 mph 1014.3mb 67f 60f
9:06 24 31 mph 1014.1mb 67f 60f
9:00 16 28 mph 1014.3mb 67f 60f
8:54 23 29 mph 1014.2mb 67f 60f
8:48 22 32 mph 1014.2mb 67f 60f
8:42 20 30 mph 1014.3mb 67f 60f
8:36 20 38 mph 1014.4mb 67f 60f
8:30 24 32 mph 1014.4mb 67f 60f
8:24 16 30 mph 1014.4mb 67f 59f
8:18 23 32 mph 1014.3mb 67f 59f
8:12 24 30 mph 1014.2mb 67f 59f
8:06 21 29 mph 1014.3mb 67f 59f
8:00 23 30 mph 1014.2mb 67f 59f
7:54 20 29 mph 1014.1mb 67f 59f
7:48 18 26 mph 1014.3mb 67f 59f
7:42 20 30 mph 1014.4mb 67f 59f
7:36 21 28 mph 1014.4mb 67f 59f
7:30 17 29 mph 1014.3mb 67f 59f
7:24 16 29 mph 1014.3mb 67f 59f
7:18 16 28 mph 1014.2mb 67f 60f
7:12 20 29 mph 1014.3mb 67f 60f
7:06 17 28 mph 1014.4mb 67f 60f
7:00 17 23 mph 1014.3mb 67f 60f
6:54 17 30 mph 1014.3mb 67f 60f
6:48 17 29 mph 1014.3mb 67f 60f
6:42 20 32 mph 1014.1mb 67f 60f
6:36 18 29 mph 1014.2mb 67f 60f
6:30 20 28 mph 1014.2mb 67f 60f
6:24 21 29 mph 1014.2mb 67f 60f
6:18 21 29 mph 1014.2mb 67f 60f
6:12 23 33 mph 1014mb 67f 60f
6:06 20 33 mph 1013.9mb 67f 60f
6:00 20 28 mph 1014mb 67f 60f
5:54 18 28 mph 1013.9mb 67f 60f
5:48 18 32 mph 1013.9mb 67f 60f
5:42 22 30 mph 1013.9mb 67f 60f
5:36 18 28 mph 1013.9mb 67f 60f
5:30 16 30 mph 1013.9mb 67f 60f
5:24 16 29 mph 1013.8mb 67f 60f
5:18 17 28 mph 1013.8mb 67f 60f
5:12 17 25 mph 1013.8mb 67f 61f
5:06 22 30 mph 1013.8mb 67f 61f
5:00 17 31 mph 1013.7mb 67f 61f
4:54 16 30 mph 1013.7mb 67f 61f
4:48 15 25 mph 1013.6mb 67f 61f
4:42 17 24 mph 1013.6mb 67f 61f
4:36 25 33 mph 1013.8mb 67f 61f
4:30 21 30 mph 1013.9mb 67f 61f
4:24 20 30 mph 1013.7mb 67f 61f
4:18 17 28 mph 1013.9mb 67f 61f
4:12 16 28 mph 1013.8mb 67f 60f
4:06 20 32 mph 1013.7mb 67f 60f
4:00 21 31 mph 1013.6mb 67f 60f
3:54 15 31 mph 1013.8mb 67f 61f
3:48 18 29 mph 1013.8mb 67f 61f
3:42 18 28 mph 1013.9mb 67f 61f
3:36 18 25 mph 1013.9mb 67f 62f
3:30 23 31 mph 1013.9mb 67f 62f
3:24 13 28 mph 1013.8mb 67f 62f
3:18 18 25 mph 1013.8mb 67f 62f
3:12 20 31 mph 1013.8mb 68f 63f
3:06 22 33 mph 1013.8mb 68f 63f
3:00 21 33 mph 1013.8mb 68f 63f
2:54 20 34 mph 1013.8mb 68f 63f
2:48 23 32 mph 1013.8mb 68f 63f
2:42 16 30 mph 1013.8mb 68f 63f
2:36 15 29 mph 1013.9mb 68f 63f
2:30 21 31 mph 1014mb 68f 62f
2:24 18 28 mph 1014.1mb 68f 62f
2:18 20 28 mph 1014.2mb 68f 62f
2:12 22 30 mph 1014.3mb 68f 62f
2:06 16 31 mph 1014.5mb 68f 63f
2:00 20 29 mph 1014.6mb 68f 64f
1:54 20 31 mph 1014.5mb 67f 64f
1:48 25 34 mph 1014.5mb - -
1:42 22 34 mph 1014.6mb - -
1:36 22 38 mph 1014.6mb - -
1:30 22 33 mph 1014.7mb 67f 65f
1:24 23 37 mph 1014.7mb 68f 65f
1:18 26 38 mph 1014.7mb 68f 65f
1:12 20 36 mph 1014.8mb 68f 65f
1:06 22 33 mph 1014.9mb 68f 65f
1:00 23 37 mph 1014.9mb 68f 66f
12:54 29 41 mph 1014.8mb 68f 66f
12:48 28 41 mph 1014.6mb 68f 66f
12:42 22 33 mph 1014.4mb 68f 66f
12:36 21 38 mph 1014.5mb 68f 66f
12:30 21 44 mph 1014.6mb 68f 67f
12:24 22 37 mph 1014.6mb 68f 67f
12:18 23 31 mph 1014.6mb 68f 67f
12:12 22 43 mph 1014.5mb 68f 67f
12:06 25 37 mph 1014.6mb 68f 66f
12:00 25 38 mph 1014.6mb 68f 66f
Do 09/21 11:54 22 38 mph 1014.5mb 68f 66f
11:48 33 43 mph 1014.3mb 68f 66f
11:42 26 41 mph 1014.5mb 68f 66f
11:36 29 43 mph 1014.6mb 68f 66f
11:30 24 36 mph 1014.8mb 68f 66f
11:24 23 37 mph 1014.9mb 68f 67f
11:18 26 37 mph 1014.9mb 68f 67f
11:12 28 37 mph 1014.9mb 68f 67f
11:06 30 36 mph 1014.9mb 68f 67f
11:00 28 37 mph 1014.8mb 68f 68f
10:54 21 28 mph 1014.7mb 68f 68f
10:48 25 32 mph 1014.8mb 68f 68f
10:42 25 37 mph 1014.9mb 68f 68f
10:36 23 30 mph 1014.9mb 68f 68f
10:30 22 31 mph 1015mb 68f 67f
10:24 24 30 mph 1015.1mb 68f 68f
10:18 23 30 mph 1015.2mb 68f 68f
10:12 18 30 mph 1015.2mb 68f 68f
10:06 22 33 mph 1015.2mb 68f 68f
10:00 24 30 mph 1015.2mb 68f 68f
9:54 17 26 mph 1015.3mb 68f 68f
9:48 20 36 mph 1015.2mb 68f 68f
9:42 16 23 mph 1015.4mb 68f 68f
9:36 15 20 mph 1015.4mb 68f 68f
9:30 17 24 mph 1015.4mb 68f 68f
9:24 14 18 mph 1015.5mb 68f 68f
9:18 14 21 mph 1015.4mb 68f 68f
9:12 14 21 mph 1015.3mb 68f 68f
9:06 14 23 mph 1015.4mb 68f 68f
9:00 15 21 mph 1015.3mb 68f 68f
8:54 15 22 mph 1015.3mb 68f 69f
8:48 14 21 mph 1015.1mb 68f 69f
8:42 17 24 mph 1015.1mb 68f 69f
8:36 14 25 mph 1015mb 68f 69f
8:30 18 26 mph 1015.1mb 68f 69f
8:24 17 24 mph 1015mb 68f 69f
8:18 17 24 mph 1015mb 68f 69f
8:12 13 23 mph 1015.1mb 68f 69f
8:06 17 20 mph 1015.1mb 68f 69f
8:00 15 21 mph 1015.2mb 68f 69f
7:54 16 22 mph 1015.2mb 68f 69f
7:48 14 26 mph 1015.3mb 68f 69f
7:42 14 20 mph 1015.3mb 68f 69f
7:36 13 22 mph 1015.3mb 68f 69f
7:30 14 24 mph 1015.1mb 68f 69f
7:24 15 21 mph 1015mb 68f 70f
7:18 17 22 mph 1014.9mb 68f 70f
7:12 14 22 mph 1014.9mb 68f 70f
7:06 16 25 mph 1014.8mb 68f 70f
7:00 15 24 mph 1014.6mb 68f 70f
6:54 14 24 mph 1014.6mb 68f 70f
6:48 13 28 mph 1014.6mb 68f 70f
6:42 20 28 mph 1014.6mb 68f 71f
6:36 17 26 mph 1014.5mb 68f 71f
6:30 16 24 mph 1014.5mb 68f 71f
6:24 15 28 mph 1014.5mb 68f 71f
6:18 14 25 mph 1014.4mb 68f 71f
6:12 15 24 mph 1014.4mb 68f 71f
6:06 14 25 mph 1014.4mb 68f 71f
6:00 18 25 mph 1014.3mb 68f 71f
5:54 21 29 mph 1014.3mb 68f 71f
5:48 14 23 mph 1014.3mb 68f 71f
5:42 18 26 mph 1014.3mb 68f 71f
5:36 17 28 mph 1014.4mb 68f 71f
5:30 17 33 mph 1014.4mb 68f 71f
5:24 18 26 mph 1014.4mb 68f 71f
5:18 22 30 mph 1014.5mb 68f 72f
5:12 15 32 mph 1014.6mb 68f 72f
5:06 24 34 mph 1014.5mb 68f 72f
5:00 21 29 mph 1014.5mb 68f 72f
4:54 20 28 mph 1014.4mb 68f 71f
4:48 24 31 mph 1014.4mb 68f 72f
4:42 20 30 mph 1014.5mb 68f 72f
4:36 21 30 mph 1014.5mb 68f 72f
4:30 23 30 mph 1014.3mb 68f 72f
4:24 22 34 mph 1014.2mb 68f 72f
4:18 17 29 mph 1014.3mb 68f 72f
4:12 28 39 mph 1014.3mb 68f 72f
4:06 25 32 mph 1014.4mb 68f 71f
4:00 20 30 mph 1014.4mb 68f 71f
3:54 22 30 mph 1014.3mb 68f 71f
3:48 24 36 mph 1014.3mb 68f 71f
3:42 23 38 mph 1014.3mb 68f 71f
3:36 18 33 mph 1014.5mb 68f 70f
3:30 20 29 mph 1014.5mb 68f 70f
3:24 23 36 mph 1014.7mb 68f 70f
3:18 28 36 mph 1014.8mb 68f 70f
3:12 26 37 mph 1014.8mb 68f 70f
3:06 28 37 mph 1015mb 68f 70f
3:00 23 33 mph 1014.9mb 68f 70f
2:54 28 37 mph 1014.8mb 68f 70f
2:48 24 32 mph 1014.8mb 68f 70f
2:42 29 39 mph 1014.6mb 68f 71f
2:36 26 34 mph 1014.7mb 68f 71f
2:30 26 34 mph 1014.6mb 68f 71f
2:24 24 33 mph 1014.4mb 68f 71f
2:18 20 28 mph 1014.4mb 68f 71f
2:12 23 39 mph 1014.3mb 68f 70f
2:06 25 33 mph 1014.3mb 68f 70f
2:00 22 36 mph 1014.5mb 68f 70f
1:54 22 34 mph 1014.5mb 68f 70f
1:48 17 31 mph 1014.6mb 68f 70f
1:42 18 32 mph 1014.6mb 68f 70f
1:36 23 36 mph 1014.5mb 68f 70f
1:30 22 34 mph 1014.6mb 68f 70f
1:24 29 37 mph 1014.5mb 68f 70f
1:18 21 33 mph 1014.7mb 68f 70f
1:12 18 34 mph 1014.8mb 68f 70f
1:06 18 30 mph 1014.7mb 68f 70f
1:00 22 33 mph 1014.7mb 68f 70f
12:54 18 33 mph 1014.8mb 68f 70f
12:48 24 33 mph 1014.8mb 68f 70f
12:42 26 33 mph 1014.8mb 68f 70f
12:36 28 36 mph 1014.7mb 68f 70f
12:30 20 32 mph 1014.6mb 68f 71f
12:24 21 30 mph 1014.7mb 68f 71f
12:18 25 33 mph 1014.8mb 68f 71f
12:12 26 36 mph 1014.8mb 68f 71f
12:06 24 32 mph 1014.7mb 68f 71f
12:00 20 29 mph 1014.8mb 68f 71f
11:54 23 34 mph 1014.6mb 68f 71f
11:48 26 39 mph 1014.8mb 68f 71f
11:42 20 30 mph 1014.7mb 68f 71f
11:36 22 31 mph 1014.7mb 68f 71f
11:30 25 33 mph 1014.7mb 68f 70f
11:24 22 29 mph 1014.7mb 68f 71f
11:18 25 34 mph 1014.8mb 68f 70f
11:12 14 26 mph 1014.9mb 68f 71f
11:06 21 29 mph 1014.8mb 68f 70f
11:00 21 26 mph 1014.8mb 68f 70f
10:54 18 24 mph 1014.8mb 68f 70f
10:48 18 32 mph 1014.8mb 68f 70f
10:42 21 30 mph 1014.7mb 68f 70f
10:36 24 30 mph 1014.8mb 68f 70f
10:30 16 28 mph 1014.9mb 68f 70f
10:24 20 36 mph 1014.8mb 68f 70f
10:18 23 34 mph 1014.6mb 68f 70f
10:12 20 29 mph 1014.4mb 68f 70f
10:06 22 32 mph 1014.3mb 68f 70f
10:00 20 32 mph 1014.3mb 68f 70f
9:54 21 28 mph 1014.2mb 68f 70f
9:48 22 31 mph 1014.1mb 68f 70f
9:42 15 25 mph 1014.2mb 68f 70f
9:36 20 31 mph 1014.1mb 68f 70f
9:30 18 31 mph 1014mb 68f 70f
9:24 17 25 mph 1013.9mb 68f 70f
9:18 23 33 mph 1013.8mb 68f 70f
9:12 25 32 mph 1013.7mb 68f 70f
9:06 17 32 mph 1013.8mb 68f 70f
9:00 24 32 mph 1013.7mb 68f 70f
8:54 22 38 mph 1013.8mb 68f 70f
8:48 21 31 mph 1013.7mb 68f 70f
8:42 21 40 mph 1013.7mb 68f 70f
8:36 21 32 mph 1013.7mb 68f 70f
8:30 17 30 mph 1013.7mb 68f 70f
8:24 23 32 mph 1013.4mb 68f 70f
8:18 22 30 mph 1013.5mb 68f 70f
8:12 14 25 mph 1013.5mb 68f 70f
8:06 21 31 mph 1013.4mb 68f 70f
8:00 21 32 mph 1013.2mb 68f 70f
7:54 20 31 mph 1013.3mb 68f 70f
7:48 28 37 mph 1013.2mb 68f 70f
7:42 22 32 mph 1013.2mb 68f 70f
7:36 23 32 mph 1013.2mb 68f 71f
7:30 23 32 mph 1013.1mb 68f 71f
7:24 18 30 mph 1013mb 68f 70f
7:18 20 29 mph 1012.8mb 68f 70f
7:12 22 31 mph 1012.7mb 68f 71f
7:06 20 26 mph 1012.7mb 68f 71f
7:00 20 30 mph 1012.7mb 68f 71f
6:54 18 36 mph 1012.7mb 68f 71f
6:48 23 32 mph 1012.6mb 68f 71f
6:42 22 31 mph 1012.5mb 68f 71f
6:36 18 29 mph 1012.4mb 68f 71f
6:30 18 28 mph 1012.4mb 68f 71f
6:24 17 22 mph 1012.2mb 68f 71f
6:18 17 24 mph 1012.2mb 68f 71f
6:12 15 23 mph 1012.1mb 68f 71f
6:06 17 26 mph 1012mb 68f 71f
6:00 21 28 mph 1011.7mb 68f 71f
5:54 18 26 mph 1011.6mb 68f 71f
5:48 15 25 mph 1011.5mb 68f 71f
5:42 16 25 mph 1011.5mb 68f 71f
5:36 18 23 mph 1011.4mb 68f 71f
5:30 17 26 mph 1011.4mb 68f 71f
5:24 17 23 mph 1011.3mb 68f 71f
5:18 14 22 mph 1011.4mb 68f 71f
5:12 13 21 mph 1011.3mb 68f 71f
5:06 13 23 mph 1011.3mb 68f 71f
5:00 14 24 mph 1011.2mb 68f 71f
4:54 16 24 mph 1011.1mb 68f 71f
4:48 18 28 mph 1011mb 68f 71f
4:42 14 23 mph 1011mb 68f 71f
4:36 17 26 mph 1010.9mb 68f 71f
4:30 17 29 mph 1010.8mb 68f 71f
4:24 17 28 mph 1010.7mb 68f 71f
4:18 13 23 mph 1010.7mb 68f 71f
4:12 16 25 mph 1010.6mb 68f 71f
4:06 18 29 mph 1010.5mb 68f 71f
4:00 14 25 mph 1010.5mb 68f 71f
3:54 18 25 mph 1010.4mb 68f 71f
3:48 18 25 mph 1010.4mb 68f 71f
3:42 15 26 mph 1010.5mb 68f 71f
3:36 16 23 mph 1010.4mb 68f 71f
3:30 16 24 mph 1010.5mb 68f 71f
3:24 16 23 mph 1010.5mb 68f 71f
3:18 14 22 mph 1010.5mb 68f 71f
3:12 14 23 mph 1010.5mb 68f 72f
3:06 16 25 mph 1010.5mb 68f 72f
3:00 14 24 mph 1010.4mb 68f 72f
2:54 15 21 mph 1010.3mb 68f 72f
2:48 11 18 mph 1010.4mb 68f 72f
2:42 20 24 mph 1010.5mb 68f 72f
2:36 11 29 mph 1010.5mb 68f 72f
2:30 20 29 mph 1010.4mb 68f 73f
2:24 18 26 mph 1010.5mb 68f 73f
2:18 21 29 mph 1010.5mb 68f 73f
2:12 18 31 mph 1010.5mb 68f 73f
2:06 15 32 mph 1010.5mb 68f 73f
2:00 15 26 mph 1010.5mb 68f 73f
1:54 20 26 mph 1010.4mb 68f 73f
1:48 15 30 mph 1010.4mb 68f 73f
1:42 18 30 mph 1010.4mb 68f 73f
1:36 15 30 mph 1010.4mb 68f 73f
1:30 15 24 mph 1010.5mb 68f 73f
1:24 16 23 mph 1010.7mb 68f 73f
1:18 14 29 mph 1010.8mb 68f 73f
1:12 15 26 mph 1010.7mb 68f 73f
1:06 15 34 mph 1010.7mb 68f 73f
1:00 20 30 mph 1010.6mb 68f 73f
12:54 11 20 mph 1010.5mb 68f 72f
12:48 15 22 mph 1010.5mb 68f 72f
12:42 17 26 mph 1010.6mb 68f 72f
12:36 16 22 mph 1010.5mb 68f 72f
12:30 17 26 mph 1010.6mb 68f 73f
12:24 17 25 mph 1010.6mb 68f 72f
12:18 17 25 mph 1010.5mb 68f 73f
12:12 16 24 mph 1010.4mb 68f 73f
12:06 15 26 mph 1010.4mb 68f 72f
12:00 14 22 mph 1010.5mb 68f 73f
Mi 09/20 11:54 21 24 mph 1010.4mb 68f 73f
11:48 17 28 mph 1010.5mb 68f 73f
11:42 17 26 mph 1010.3mb 68f 73f
11:36 22 29 mph 1010.4mb 68f 73f
11:30 20 29 mph 1010.5mb 68f 72f
11:24 18 29 mph 1010.5mb 68f 72f
11:18 15 21 mph 1010.5mb 68f 72f
11:12 15 24 mph 1010.5mb 68f 72f
11:06 14 26 mph 1010.6mb 68f 72f
11:00 18 25 mph 1010.6mb 68f 72f
10:54 15 26 mph 1010.7mb 68f 72f
10:48 14 20 mph 1010.8mb 68f 72f
10:42 14 20 mph 1010.6mb 68f 71f
10:36 10 21 mph 1010.6mb 68f 71f
10:30 16 24 mph 1010.6mb 68f 71f
10:24 13 21 mph 1010.6mb 68f 71f
10:18 14 21 mph 1010.6mb 68f 71f
10:12 16 20 mph 1010.5mb 68f 71f
10:06 18 25 mph 1010.6mb 68f 71f
10:00 14 23 mph 1010.5mb 68f 71f
9:54 11 18 mph 1010.5mb 68f 71f
9:48 13 22 mph 1010.5mb 68f 71f
9:42 13 21 mph 1010.5mb 68f 71f
9:36 15 21 mph 1010.4mb 68f 71f
9:30 13 18 mph 1010.4mb 68f 71f
9:24 13 20 mph 1010.4mb 68f 70f
9:18 11 21 mph 1010.3mb 68f 70f
9:12 13 17 mph 1010.3mb 68f 70f
9:06 14 20 mph 1010.2mb 68f 70f
9:00 15 21 mph 1010.1mb 68f 70f
8:54 13 18 mph 1010.1mb 68f 70f
8:48 11 18 mph 1010.2mb 68f 70f
8:42 14 21 mph 1010.2mb 68f 70f
8:36 14 22 mph 1010.3mb 68f 70f
8:30 11 26 mph 1010.5mb 68f 70f
8:24 15 25 mph 1010.3mb 68f 70f
8:18 18 24 mph 1010.3mb 68f 70f
8:12 21 33 mph 1010.4mb 68f 70f
8:06 20 32 mph 1010.5mb 68f 70f
8:00 17 26 mph 1010.6mb 68f 70f
7:54 17 25 mph 1010.6mb 68f 70f
7:48 20 28 mph 1010.6mb 68f 70f
7:42 16 25 mph 1010.6mb 68f 70f
7:36 16 25 mph 1010.6mb 68f 70f
7:30 13 22 mph 1010.6mb 68f 69f
7:24 15 24 mph 1010.6mb 68f 69f
7:18 15 28 mph 1010.5mb 68f 69f
7:12 17 26 mph 1010.5mb 68f 69f
7:06 16 22 mph 1010.5mb 68f 69f
7:00 18 30 mph 1010.4mb 68f 69f
6:54 17 26 mph 1010.4mb 68f 69f
6:48 17 24 mph 1010.4mb 68f 69f
6:42 17 25 mph 1010.3mb 68f 69f
6:36 16 22 mph 1010.3mb 68f 69f
6:30 16 22 mph 1010.3mb 68f 69f
6:24 14 25 mph 1010.2mb 68f 69f
6:18 15 24 mph 1010.1mb 68f 69f
6:12 13 25 mph 1010.1mb 68f 70f
6:06 17 29 mph 1010.1mb 68f 70f
6:00 14 26 mph 1010mb 68f 70f
5:54 13 24 mph 1010mb 68f 70f
5:48 17 23 mph 1009.9mb 68f 70f
5:42 18 23 mph 1010mb 68f 70f
5:36 14 29 mph 1009.9mb 68f 70f
5:30 20 26 mph 1009.9mb 68f 70f
5:24 18 29 mph 1009.9mb 68f 70f
5:18 18 25 mph 1009.9mb 68f 70f
5:12 15 24 mph 1009.9mb 68f 70f
5:06 16 25 mph 1009.8mb 68f 69f
5:00 20 25 mph 1009.7mb 68f 69f
4:54 14 26 mph 1009.7mb 68f 69f
4:48 17 26 mph 1009.6mb 68f 69f
4:42 15 25 mph 1009.6mb 68f 69f
4:36 16 28 mph 1009.5mb 68f 69f
4:30 18 26 mph 1009.5mb 68f 69f
4:24 17 26 mph 1009.4mb 68f 69f
4:18 18 26 mph 1009.4mb 68f 69f
4:12 22 31 mph 1009.3mb 68f 70f
4:06 17 25 mph 1009.3mb 68f 70f
4:00 14 30 mph 1009.2mb 68f 69f
3:54 17 30 mph 1009.1mb 68f 69f
3:48 20 28 mph 1009.2mb 68f 69f
3:42 18 26 mph 1009.2mb 68f 69f
3:36 22 30 mph 1009.2mb 68f 69f
3:30 17 25 mph 1009.2mb 68f 69f
3:24 15 25 mph 1009.4mb 68f 69f
3:18 18 26 mph 1009.3mb 68f 69f
3:12 17 28 mph 1009.3mb 68f 69f
3:06 18 26 mph 1009.3mb 68f 69f
3:00 16 26 mph 1009.4mb 68f 69f
2:54 18 24 mph 1009.4mb 68f 69f
2:48 17 28 mph 1009.4mb 68f 69f
2:42 21 28 mph 1009.3mb 68f 69f
2:36 18 26 mph 1009.3mb 68f 69f
2:30 13 24 mph 1009.3mb 68f 69f
2:24 15 24 mph 1009.3mb 68f 69f
2:18 20 26 mph 1009.3mb 68f 69f
2:12 15 25 mph 1009.2mb 68f 69f
2:06 13 26 mph 1009.2mb 68f 69f
2:00 16 24 mph 1009.2mb 68f 69f
1:54 17 28 mph 1009.2mb 68f 69f
1:48 13 26 mph 1009.2mb 68f 69f
1:42 18 32 mph 1009.2mb 68f 69f
1:36 20 26 mph 1009mb 68f 69f
1:30 20 26 mph 1009.1mb 68f 69f
1:24 16 30 mph 1009mb 68f 69f
1:18 22 30 mph 1009.1mb 68f 69f
1:12 17 25 mph 1009.1mb 68f 69f
1:06 17 36 mph 1009.1mb 68f 69f
1:00 22 31 mph 1009mb 68f 69f
12:54 20 31 mph 1009.2mb 68f 69f
12:48 17 31 mph 1009.3mb 68f 69f
12:42 20 31 mph 1009.3mb 68f 69f
12:36 26 34 mph 1009.4mb 68f 69f
12:30 20 32 mph 1009.5mb 68f 69f
12:24 18 31 mph 1009.5mb 68f 69f
12:18 18 28 mph 1009.6mb 68f 69f
12:12 21 29 mph 1009.6mb 68f 69f
12:06 21 30 mph 1009.6mb 68f 69f
12:00 17 36 mph 1009.5mb 68f 69f
11:54 21 31 mph 1009.5mb 68f 69f
11:48 22 31 mph 1009.5mb 68f 69f
11:42 21 30 mph 1009.5mb 68f 69f
11:36 20 28 mph 1009.5mb 68f 69f
11:30 21 28 mph 1009.5mb 68f 69f
11:24 22 30 mph 1009.4mb 68f 69f
11:18 25 33 mph 1009.5mb 68f 69f
11:12 20 33 mph 1009.6mb 68f 69f
11:06 22 33 mph 1009.5mb 68f 69f
11:00 24 31 mph 1009.5mb 68f 69f
10:54 24 34 mph 1009.6mb 68f 69f
10:48 21 30 mph 1009.7mb 68f 69f
10:42 21 31 mph 1009.7mb 68f 69f
10:36 23 30 mph 1009.7mb 68f 69f
10:30 18 30 mph 1009.7mb 68f 69f
10:24 18 25 mph 1009.8mb 68f 69f
10:18 17 24 mph 1009.9mb 68f 69f
10:12 17 26 mph 1010mb 68f 69f
10:06 16 26 mph 1010.1mb 68f 69f
10:00 17 29 mph 1010.2mb 68f 69f
9:54 20 26 mph 1010.2mb 68f 69f
9:48 17 23 mph 1010.1mb 68f 69f
9:42 22 28 mph 1010.1mb 68f 69f
9:36 18 28 mph 1010.2mb 68f 69f
9:30 20 30 mph 1010.1mb 68f 69f
9:24 17 37 mph 1010.2mb 68f 69f
9:18 18 25 mph 1010.2mb 68f 68f
9:12 20 26 mph 1010.3mb 68f 68f
9:06 18 25 mph 1010.2mb 68f 68f
9:00 15 24 mph 1010.2mb 68f 68f
8:54 17 24 mph 1010mb 68f 68f
8:48 21 29 mph 1010.1mb 68f 68f
8:42 18 26 mph 1010mb 68f 68f
8:36 20 26 mph 1010mb 68f 68f
8:30 20 28 mph 1010.1mb 68f 68f
8:24 24 30 mph 1010mb 68f 68f
8:18 20 25 mph 1009.9mb 68f 68f
8:12 21 30 mph 1009.9mb 68f 68f
8:06 18 28 mph 1009.8mb 68f 68f
8:00 21 25 mph 1009.8mb 68f 68f
7:54 18 26 mph 1009.9mb 68f 68f
7:48 20 30 mph 1010mb 69f 68f
7:42 20 31 mph 1009.9mb 69f 68f
7:36 17 23 mph 1010mb 69f 68f
7:30 15 24 mph 1010mb 69f 68f
7:24 16 24 mph 1010mb 69f 68f
7:18 16 21 mph 1009.9mb 69f 68f
7:12 15 24 mph 1010mb 69f 68f
7:06 16 22 mph 1009.8mb 69f 68f
7:00 14 24 mph 1009.8mb 69f 68f
6:54 14 23 mph 1009.9mb 69f 68f
6:48 18 23 mph 1009.9mb 69f 68f
6:42 21 32 mph 1009.9mb 69f 68f
6:36 16 20 mph 1009.8mb 69f 67f
6:30 17 25 mph 1009.9mb 69f 68f
6:24 15 23 mph 1009.9mb 69f 67f
6:18 17 25 mph 1010mb 69f 67f
6:12 15 24 mph 1009.9mb 69f 67f
6:06 15 22 mph 1009.8mb 69f 67f
6:00 17 24 mph 1009.7mb 69f 67f
5:54 16 22 mph 1009.7mb 69f 67f
5:48 18 24 mph 1009.7mb 69f 67f
5:42 15 28 mph 1009.8mb 69f 67f
5:36 13 21 mph 1009.9mb 69f 67f
5:30 13 25 mph 1009.8mb 69f 67f
5:24 14 23 mph 1009.9mb 69f 67f
5:18 13 23 mph 1009.9mb 69f 67f
5:12 15 22 mph 1009.8mb 69f 67f
5:06 16 26 mph 1009.8mb 69f 67f
5:00 18 24 mph 1009.8mb 69f 67f
4:54 18 25 mph 1009.7mb 69f 67f
4:48 13 28 mph 1009.8mb 69f 67f
4:42 17 28 mph 1009.8mb 69f 67f
4:36 16 25 mph 1009.7mb 69f 67f
4:30 20 29 mph 1009.8mb 69f 67f
4:24 16 23 mph 1009.8mb 69f 67f
4:18 16 20 mph 1009.9mb 69f 67f
4:12 13 20 mph 1010.1mb 69f 67f
4:06 14 20 mph 1010.1mb 69f 67f
4:00 13 16 mph 1010.1mb 69f 67f
3:54 11 18 mph 1010.2mb 69f 67f
3:48 11 18 mph 1010.2mb 69f 67f
3:42 14 23 mph 1010.2mb 69f 67f
3:36 13 20 mph 1010.3mb 69f 66f
3:30 13 20 mph 1010.4mb 69f 66f
3:24 13 21 mph 1010.5mb 69f 66f
3:18 15 20 mph 1010.5mb 69f 66f
3:12 13 18 mph 1010.5mb 69f 66f
3:06 15 20 mph 1010.6mb 69f 66f
3:00 15 21 mph 1010.7mb 69f 66f
2:54 13 21 mph 1010.6mb 69f 66f
2:48 13 22 mph 1010.6mb 69f -
2:42 16 20 mph 1010.6mb 69f -
2:36 14 22 mph 1010.7mb 69f -
2:30 14 22 mph 1010.8mb 69f 66f
2:24 15 20 mph 1011mb 69f 66f
2:18 14 22 mph 1011.1mb 69f 66f
2:12 16 22 mph 1011.2mb 69f 66f
2:06 16 21 mph 1011.2mb 69f 66f
2:00 14 21 mph 1011.3mb 69f 66f
1:54 13 21 mph 1011.5mb 69f 66f
1:48 16 21 mph 1011.5mb - -
1:42 14 22 mph 1011.7mb - -
1:36 16 24 mph 1011.8mb - -
1:30 13 18 mph 1011.8mb 69f 66f
1:24 15 20 mph 1012mb 69f 66f
1:18 14 20 mph 1012mb 69f 66f